#timestamp,LO_Frequency,Hit,StdDev 
1563357615.4,286047001.1,N
1563357635.2,286047001.0,N
1563357655.1,286047000.0,N
1563357656.0,286047000.0,N
1563357675.8,286047001.6,N
1563357695.7,286047002.2,N
1563357715.5,286047002.1,N
1563357735.3,286047004.0,N
1563357755.2,286047003.2,N
1563357775.0,286047001.8,N
1563357775.9,286047001.8,N
1563357795.7,286047002.2,N
1563357815.6,286047003.2,N
1563357835.4,286047004.1,N
1563357855.3,286047001.8,N
1563357875.1,286047001.4,N
1563357876.0,286047001.4,N
1563357895.8,286047003.4,N
1563357915.7,286047004.1,Y
1563357935.5,286047001.5,P
1563357955.4,286047001.3,P
1563357975.2,286047002.4,P
1563357995.0,286047001.9,Y
1563357995.9,286047001.9,P
1563358015.8,286047000.8,P
1563358035.6,286046999.6,N
1563358055.5,286046997.6,N
1563358075.3,286046999.1,N
1563358095.1,286046996.8,N
1563358115.9,286046995.8,N
1563358135.7,286046996.2,N
1563358155.5,286046995.8,N
1563358175.4,286046997.8,N
1563358195.2,286046997.5,N
1563358215.1,286046997.6,N
1563358216.0,286046997.6,N
1563358235.8,286046997.0,N
1563358255.6,286046999.3,N
1563358275.5,286046999.7,N
1563358295.3,286047002.3,N
1563358315.1,286046998.8,N
1563358335.9,286047000.8,N
1563358355.7,286047002.6,N
1563358375.6,286047001.1,N
1563358395.4,286047000.9,N
1563358415.2,286047000.8,N
1563358435.1,286047000.6,N
1563358436.0,286047000.6,N
1563358455.8,286047000.0,N
1563358475.7,286047000.7,N
1563358495.5,286047000.3,N
1563358515.3,286047000.8,N
1563358535.2,286047002.7,N
1563358555.0,286047000.9,N
1563358555.9,286047000.9,N
1563358575.7,286047000.9,N
1563358595.6,286047000.6,N
1563358615.4,286046999.8,N
1563358635.1,286047002.7,N
1563358636.0,286047002.7,N
1563358655.8,286047004.4,N
1563358675.7,286047002.8,N
1563358695.5,286047002.2,N
1563358715.3,286047001.7,N
1563358735.2,286047001.6,N
1563358755.0,286047000.5,N
1563358755.9,286047000.5,N
1563358775.8,286047000.6,N
1563358795.6,286047002.4,N
1563358815.4,286047000.9,N
1563358835.3,286047001.0,N
1563358855.1,286046998.7,N
1563358875.8,286046998.1,N
1563358895.7,286046996.5,N
1563358915.5,286047000.7,N
1563358935.4,286047002.4,N
1563358955.2,286047000.8,N
1563358975.0,286046999.7,N
1563358975.9,286046999.7,N
1563358995.8,286047002.0,N
1563359015.6,286047000.6,N
1563359035.4,286047000.7,N
1563359055.3,286047000.1,N
1563359075.1,286047001.9,N
1563359095.9,286047001.3,N
1563359115.7,286047003.9,N
1563359135.5,286047005.6,Y
1563359155.4,286047001.7,P
1563359175.2,286047004.1,P
1563359195.1,286047004.3,P
1563359196.0,286047004.3,N
1563359215.8,286047001.7,N
1563359235.6,286047001.3,N
1563359255.5,286047004.3,Y
1563359275.3,286047000.5,P
1563359295.2,286047000.7,N
1563359315.9,286047002.7,N
1563359335.7,286047001.8,N
1563359355.6,286047002.1,N
1563359375.4,286047002.8,Y
1563359395.2,286046999.4,P
1563359415.1,286046998.2,N
1563359416.0,286046998.2,N
1563359435.8,286046999.2,N
1563359455.7,286046999.0,N
1563359475.5,286046998.2,N
1563359495.3,286047000.9,N
1563359515.2,286047001.1,N
1563359535.0,286046998.8,N
1563359535.9,286046998.8,N
1563359585.8,286046999.4,E
1563359595.7,286046999.4,N
1563359615.5,286046997.1,P
1563359635.4,286046997.0,N
1563359655.2,286046996.6,Y
1563359675.1,286047001.0,P
1563359676.0,286047001.0,N
1563359695.8,286047000.5,N
1563359715.6,286047001.1,N
1563359735.5,286046998.5,N
1563359755.3,286046998.7,N
1563359775.1,286046996.9,N
1563359795.9,286046997.0,N
1563359815.7,286046996.8,N
1563359835.6,286046996.7,N
1563359855.4,286046997.9,N
1563359875.2,286046997.2,N
1563359895.1,286046996.5,N
1563359896.0,286046996.5,N
1563359915.8,286046998.7,N
1563359935.7,286046999.0,N
1563359955.5,286046997.0,N
1563359975.3,286046997.4,N
1563359995.2,286046997.4,N
1563360015.0,286046997.8,N
1563360015.9,286046997.8,N
1563360035.7,286046996.7,N
1563360055.6,286046997.9,N
1563360075.4,286046997.2,N
1563360095.3,286046997.2,N
1563360115.1,286046998.0,N
1563360135.8,286046997.5,N
1563360155.7,286046998.0,N
1563360175.5,286046998.0,N
1563360195.4,286046996.6,N
1563360215.2,286046997.3,N
1563360235.0,286046997.8,N
1563360235.9,286046997.8,N
1563360255.8,286046995.3,Y
1563360275.6,286046998.6,P
1563360295.5,286046999.3,N
1563360315.3,286046999.4,N
1563360335.1,286046999.4,N
1563360355.9,286046999.0,N
1563360375.7,286046999.0,N
1563360395.5,286046999.6,N
1563360415.4,286046999.5,N
1563360435.2,286046996.7,Y
1563360455.1,286046999.3,P
1563360456.0,286046999.3,P
1563360475.8,286046995.4,P
1563360495.6,286046997.8,N
1563360515.5,286046997.7,N
1563360535.3,286046999.5,N
1563360555.2,286046998.4,N
1563360575.9,286046998.1,N
1563360595.7,286047001.0,N
1563360615.6,286046998.1,N
1563360635.4,286047002.3,N
1563360655.2,286047000.6,N
1563360675.1,286046996.8,N
1563360676.0,286046996.8,N
1563360695.8,286046996.8,N
1563360715.7,286046998.1,N
1563360735.5,286046996.5,N
1563360755.3,286046997.8,N
1563360775.2,286046997.4,N
1563360795.0,286046999.3,N
1563360795.9,286046999.3,N
1563360815.8,286046999.2,N
1563360835.6,286046999.1,N
1563360855.4,286046999.2,N
1563360875.3,286046999.4,N
1563360895.1,286046997.6,N
1563360915.8,286046998.0,N
1563360935.7,286046997.1,N
1563360955.5,286046997.6,N
1563360975.4,286046996.8,N
1563360995.2,286046999.4,N
1563361015.0,286046997.1,N
1563361015.9,286046997.1,N
1563361035.7,286046997.5,N
1563361055.5,286046997.6,N
1563361075.3,286046996.8,N
1563361095.2,286046995.6,Y
1563361115.0,286046999.6,P
1563361115.9,286046999.6,N
1563361135.7,286046998.8,N
1563361155.6,286047000.3,N
1563361175.4,286046998.5,N
1563361195.3,286046996.5,Y
